Date,TemperatureHighF,TemperatureAvgF,TemperatureLowF,DewpointHighF,DewpointAvgF,DewpointLowF,HumidityHigh,HumidityAvg,HumidityLow,PressureMaxIn,PressureMinIn,WindSpeedMaxMPH,WindSpeedAvgMPH,GustSpeedMaxMPH,PrecipitationSumIn
2013-8-1,91.6,78.4,65.5,71.3,67.6,64.6,100,72,45,30.06,29.91,9,1,15,0.00
2013-8-2,89.0,77.2,66.5,76.5,71.7,65.6,100,84,64,29.95,29.79,8,1,21,0.49
2013-8-3,85.1,78.3,72.7,74.4,72.2,70.7,94,82,66,30.08,29.84,12,2,18,0.05
2013-8-4,76.7,71.5,67.3,72.3,68.5,63.3,100,91,75,30.10,29.98,6,1,13,0.50
2013-8-5,88.2,76.9,70.1,76.3,73.1,70.1,100,89,67,30.02,29.78,7,1,15,0.00
2013-8-6,90.6,79.8,70.8,77.6,74.3,70.2,100,84,63,29.83,29.73,10,2,18,0.25
2013-8-7,87.5,79.1,71.0,77.9,73.5,67.4,100,84,68,29.90,29.72,15,2,29,1.32
2013-8-8,75.8,72.3,69.0,68.8,66.6,64.0,89,82,73,29.97,29.81,15,2,16,0.01
2013-8-9,75.0,72.0,67.4,70.7,66.9,65.2,95,84,73,30.08,29.94,6,1,10,0.01
2013-8-10,85.8,74.6,65.5,68.5,64.7,60.6,100,74,49,30.16,30.05,10,1,18,0.01
2013-8-11,87.1,74.0,61.1,70.5,65.7,59.2,94,77,54,30.09,29.97,7,1,13,0.00
2013-8-12,84.2,75.2,67.8,71.9,69.8,66.6,100,84,61,30.00,29.91,22,2,30,0.54
2013-8-13,81.5,73.7,68.4,69.5,63.2,57.1,94,72,45,30.09,29.98,17,2,21,0.00
2013-8-14,80.8,70.0,62.1,63.0,60.0,56.3,91,72,48,30.17,30.06,8,1,18,0.00
2013-8-15,78.1,67.9,62.0,62.5,58.9,55.9,86,73,55,30.10,29.98,8,1,14,0.02
2013-8-16,78.8,68.8,61.1,60.6,58.2,56.7,86,70,51,30.14,30.05,9,1,20,0.00
2013-8-17,80.7,67.7,55.3,60.6,57.4,54.4,100,73,44,30.18,30.08,9,1,15,0.00
2013-8-18,84.5,69.9,57.4,65.0,60.4,56.0,96,75,48,30.15,30.05,7,1,15,0.00
2013-8-19,81.9,76.1,72.7,67.5,66.6,65.2,78,73,60,30.00,29.96,3,0,10,0.00
2013-8-20,90.2,78.5,68.3,69.8,67.2,64.1,88,70,49,30.03,29.94,10,2,16,0.00
2013-8-21,92.1,80.0,69.4,71.7,68.8,64.0,85,70,50,30.03,29.95,8,2,20,0.00
2013-8-22,93.0,81.2,70.7,73.0,70.5,67.6,90,71,49,30.06,29.96,6,1,12,0.00
2013-8-23,93.7,81.7,70.1,73.9,70.3,67.8,96,71,44,30.04,29.95,9,1,18,0.00
2013-8-24,92.6,82.0,72.1,75.2,71.8,69.4,92,73,51,30.08,29.99,9,2,20,0.00
2013-8-25,94.8,82.2,71.2,76.0,71.9,68.7,92,73,49,30.16,30.06,8,1,20,0.00
2013-8-26,96.1,84.2,74.5,74.0,72.0,70.2,87,69,47,30.11,30.00,10,2,18,0.00
2013-8-27,95.3,83.4,72.9,72.0,68.9,64.7,86,64,40,30.02,29.92,9,2,22,0.00
2013-8-28,95.1,82.8,71.7,73.6,70.5,66.9,89,68,47,30.00,29.94,6,1,15,0.00
2013-8-29,98.0,85.5,75.1,75.0,72.6,69.5,87,67,41,29.98,29.88,8,2,19,0.00
2013-8-30,82.2,80.8,79.2,73.9,72.0,71.3,78,74,70,29.89,29.88,3,0,7,0.00
2013-8-31,89.4,73.3,59.1,64.0,59.8,56.8,93,67,38,30.14,30.03,7,0,14,0.00